Weather History for Craig, CO

Change the Weather History Date:

Saturday, March 9, 2013

  Actual Average Record
Temperature  
Mean Temperature 28 °F 29 °F  
Max Temperature 37 °F 42 °F 59 °F (2014)
Min Temperature 18 °F 16 °F -9 °F (2002)
Degree Days  
Heating Degree Days 37 36  
Month to date heating degree days 344 339  
Since 1 July heating degree days 6663 6665  
Cooling Degree Days 0 0  
Month to date cooling degree days 0 0  
Year to date cooling degree days 0 0  
Moisture  
Dew Point 26 °F    
Average Humidity 69    
Maximum Humidity 89    
Minimum Humidity 49    
Precipitation  
Precipitation 0.30 in 0.03 in 0.30 in (2013)
Month to date precipitation 0.45 0.30  
Year to date precipitation 1.49 2.00  
Sea Level Pressure  
Sea Level Pressure 29.78 in    
Wind  
Wind Speed 7 mph (WNW)    
Max Wind Speed 24 mph    
Max Gust Speed 32 mph    
Visibility 6 miles    
Events Fog , Rain , Snow    
T = Trace of Precipitation, MM = Missing Value Source: NWS Daily Summary

Daily Weather History Graph

Daily Weather History Graph

Search for Another Location

Airport:

Trip Planner

Search our weather history database for the weather conditions in past years. The results will help you decide how hot, cold, wet, or windy it might be!

Date:

Astronomy

Mar. 09, 2013 Rise Set
Actual Time 6:30 AM MST 6:10 PM MST
Civil Twilight 6:03 AM MST 6:37 PM MST
Nautical Twilight 5:32 AM MST 7:09 PM MST
Astronomical Twilight 5:00 AM MST 7:41 PM MST
Moon 4:57 AM MST (3/9) 4:15 PM MST (3/9)
Length of Visible Light 12h 34m
Length of Day
11h 39m
Waning Crescent, 5% of the Moon is Illuminated
Mar 9
Waning Crescent
Mar 11
New
Mar 19
First Quarter
Mar 27
Full
Apr 2
Last Quarter

Hourly Weather History & Observations

Time (MST) Temp. Windchill Dew Point Humidity Pressure Visibility Wind Dir Wind Speed Gust Speed Precip Events Conditions
12:03 AM 33.8 °F 28.6 °F 30.2 °F 87% 29.68 in 10.0 mi SSW 5.8 mph - N/A   Overcast
12:53 AM 34.0 °F - 30.9 °F 89% 29.66 in 10.0 mi Calm Calm - N/A   Overcast
1:03 AM 33.8 °F 28.6 °F 30.2 °F 87% 29.68 in 10.0 mi SW 5.8 mph - 0.00 in Rain Light Rain
1:23 AM 33.8 °F - 30.2 °F 87% 29.68 in 8.0 mi Calm Calm - 0.00 in Rain Light Rain
1:53 AM 34.0 °F 31.0 °F 30.9 °F 89% 29.65 in 9.0 mi West 3.5 mph - 0.01 in Rain Light Rain
2:08 AM 33.8 °F 30.8 °F 30.2 °F 87% 29.67 in 5.0 mi West 3.5 mph - 0.01 in Snow Light Snow
2:26 AM 33.8 °F 30.8 °F 30.2 °F 87% 29.67 in 2.0 mi West 3.5 mph - 0.02 in Snow Light Snow
2:35 AM 33.8 °F 30.8 °F 30.2 °F 87% 29.66 in 1.8 mi West 3.5 mph - 0.03 in Snow Light Snow
2:53 AM 33.1 °F 27.7 °F 30.9 °F 92% 29.65 in 1.5 mi WSW 5.8 mph - 0.06 in Snow Light Snow
3:15 AM 33.8 °F 30.8 °F 30.2 °F 87% 29.66 in 1.0 mi WSW 3.5 mph - 0.03 in Snow Light Snow
3:23 AM 33.8 °F - 30.2 °F 87% 29.65 in 1.0 mi Calm Calm - 0.05 in Snow Light Snow
3:46 AM 33.8 °F 29.6 °F 30.2 °F 87% 29.65 in 0.8 mi NNW 4.6 mph - 0.09 in Snow Light Snow
3:53 AM 33.1 °F 27.7 °F 30.0 °F 89% 29.65 in 1.2 mi NW 5.8 mph - 0.09 in Snow Light Snow
4:12 AM 33.8 °F - 30.2 °F 87% 29.65 in 1.0 mi Calm Calm - 0.02 in Snow Light Snow
4:17 AM 33.8 °F - 30.2 °F 87% 29.65 in 1.2 mi Calm Calm - 0.02 in Snow Light Snow
4:31 AM 33.8 °F 30.8 °F 30.2 °F 87% 29.65 in 2.0 mi SW 3.5 mph - 0.03 in Snow Light Snow
4:41 AM 33.8 °F - 30.2 °F 87% 29.66 in 4.0 mi Calm Calm - 0.03 in Snow Light Snow
4:53 AM 33.1 °F 30.0 °F 30.9 °F 92% 29.65 in 4.0 mi WSW 3.5 mph - 0.03 in Snow Light Snow
5:18 AM 33.8 °F - 30.2 °F 87% 29.65 in 2.0 mi Calm Calm - 0.01 in Snow Light Snow
5:22 AM 33.8 °F - 30.2 °F 87% 29.66 in 1.5 mi Calm Calm - 0.01 in Snow Light Snow
5:53 AM 33.1 °F - 30.9 °F 92% 29.68 in 2.5 mi Calm Calm - 0.03 in Snow Light Snow
6:04 AM 33.8 °F - 30.2 °F 87% 29.66 in 1.8 mi Calm Calm - 0.01 in Snow Light Snow
6:25 AM 33.8 °F - 30.2 °F 87% 29.67 in 1.8 mi Calm Calm - 0.02 in Snow Light Snow
6:48 AM 33.8 °F - 30.2 °F 87% 29.68 in 0.8 mi Calm Calm - 0.03 in Snow Light Snow
6:53 AM 33.1 °F - 30.9 °F 92% 29.68 in 0.5 mi Calm Calm - 0.04 in Fog , Snow Snow
7:00 AM 33.8 °F - 30.2 °F 87% 29.68 in 0.5 mi Calm Calm - 0.00 in Fog , Snow Snow
7:19 AM 33.8 °F - 30.2 °F 87% 29.68 in 0.5 mi Calm Calm - 0.02 in Fog , Snow Snow
7:33 AM 33.8 °F 30.8 °F 30.2 °F 87% 29.68 in 0.8 mi WSW 3.5 mph - 0.03 in Snow Light Snow
7:40 AM 33.8 °F 30.8 °F 30.2 °F 87% 29.69 in 1.2 mi West 3.5 mph - 0.03 in Snow Light Snow
7:53 AM 33.1 °F - 30.9 °F 92% 29.70 in 2.5 mi Calm Calm - 0.04 in Snow Light Snow
8:03 AM 33.8 °F 30.8 °F 30.2 °F 87% 29.69 in 3.0 mi NW 3.5 mph - 0.00 in Snow Light Snow
8:53 AM 35.1 °F 32.2 °F 28.9 °F 78% 29.73 in 5.0 mi Variable 3.5 mph - 0.00 in   Haze
9:53 AM 36.0 °F 31.1 °F 27.0 °F 70% 29.74 in 10.0 mi North 5.8 mph - N/A   Unknown
10:53 AM 35.1 °F 26.4 °F 26.1 °F 70% 29.77 in 10.0 mi NNW 12.7 mph - N/A   Overcast
11:53 AM 36.0 °F 28.0 °F 25.0 °F 64% 29.79 in 10.0 mi North 11.5 mph - N/A   Overcast
12:53 PM 36.0 °F 26.0 °F 23.0 °F 59% 29.82 in 10.0 mi North 17.3 mph - N/A   Overcast
1:53 PM 36.0 °F 27.1 °F 23.0 °F 59% 29.84 in 10.0 mi North 13.8 mph - N/A   Overcast
2:53 PM 36.0 °F 25.3 °F 23.0 °F 59% 29.87 in 10.0 mi North 19.6 mph 28.8 mph N/A   Partly Cloudy
3:53 PM 36.0 °F 24.7 °F 21.0 °F 55% 29.91 in 10.0 mi North 21.9 mph 28.8 mph N/A   Partly Cloudy
4:53 PM 34.0 °F 22.4 °F 21.0 °F 59% 29.96 in 10.0 mi NNW 20.7 mph - N/A   Clear
5:53 PM 32.0 °F 23.0 °F 16.0 °F 52% 30.01 in 10.0 mi North 11.5 mph 20.7 mph N/A   Clear
6:53 PM 28.9 °F 20.4 °F 14.0 °F 54% 30.08 in 10.0 mi NNE 9.2 mph - N/A   Clear
7:53 PM 28.0 °F 24.2 °F 12.0 °F 51% 30.12 in 10.0 mi NNW 3.5 mph - N/A   Clear
8:53 PM 26.1 °F - 15.1 °F 63% 30.16 in 10.0 mi Calm Calm - N/A   Scattered Clouds
9:53 PM 25.0 °F 20.7 °F 15.1 °F 66% 30.19 in 10.0 mi SW 3.5 mph - N/A   Clear
10:53 PM 19.0 °F 12.3 °F 12.0 °F 74% 30.22 in 10.0 mi SW 4.6 mph - N/A   Scattered Clouds
11:53 PM 19.0 °F - 12.0 °F 74% 30.24 in 10.0 mi Calm Calm - N/A   Mostly Cloudy